Regional Weather Roundup
Issued by NWS Little Rock, AR

Home | Current Version | Previous Version | Text Only | Print | Product List | Glossary Off
Versions: 1 2 3 4 5 6 7 8 9 10 11 12 13 14 15 16 17 18 19 20 21 22 23 24 25 26 27 28 29 30 31 32 33 34 35 36 37 38 39 40 41 42 43 44 45 46 47 48 49 50

000
ASUS44 KLZK 041105
RWRLZK

WEATHER ROUNDUP FOR ARKANSAS
NATIONAL WEATHER SERVICE LITTLE ROCK AR
600 AM CDT TUE AUG 04 2015

NOTE: "FAIR" INDICATES FEW OR NO CLOUDS BELOW 12,000 FEET WITH NO
SIGNIFICANT WEATHER AND/OR OBSTRUCTIONS TO VISIBILITY.

ARZ001-003-010-029-041200-
NORTHWEST ARKANSAS

CITY           SKY/WX    TMP DP  RH WIND       PRES   REMARKS
FAYETTEVILLE   MOCLDY    66  66 100 CALM      30.00R
FORT SMITH     PTCLDY    73  68  84 NE5       29.95R
HARRISON       CLEAR     67  66  97 SE5       30.01R
BENTONVILLE    PTCLDY    72  63  73 CALM      30.00R
ROGERS         PTCLDY    71  68  90 SE6       30.00R
SILOAM SPGS    PTCLDY    70  61  73 SE5       29.98R
HIGHFILL       PTCLDY    68  67  96 CALM      29.99R
SPRINGDALE     CLEAR     70  64  83 SE5       30.01
$$

ARZ004-005-016-041200-
NORTH CENTRAL ARKANSAS

CITY           SKY/WX    TMP DP  RH WIND       PRES   REMARKS
BATESVILLE     CLEAR     72  68  88 CALM      29.97R
FLIPPIN        CLEAR     70  64  83 CALM      29.98R
MTN HOME       CLEAR     71  69  93 CALM      29.99R
$$

ARZ040-041-041200-
WEST CENTRAL ARKANSAS

CITY           SKY/WX    TMP DP  RH WIND       PRES   REMARKS
MENA           PTCLDY    68  64  88 CALM      30.00R
MOUNT IDA      MOCLDY    68  66  93 CALM      29.96R
$$

ARZ009-017-025-026-028-041200-
NORTHEAST ARKANSAS

CITY           SKY/WX    TMP DP  RH WIND       PRES   REMARKS
JONESBORO      CLEAR     72  70  93 CALM      29.96R
NEWPORT        CLEAR     75  72  91 CALM      29.98R
WALNUT RIDGE   CLEAR     73  70  88 CALM      29.96R
BLYTHEVILLE    PTCLDY    74  73  97 SW6       29.96R
$$

ARZ022-023-033-042-044-041200-
CENTRAL ARKANSAS

CITY           SKY/WX    TMP DP  RH WIND       PRES   REMARKS
LITTLE ROCK    PTCLDY    74  69  85 CALM      29.97R
N LITTLE ROCK    N/A     77  69  75 SW3       29.97R
JACKSONVILLE   CLEAR     69  68  94 CALM      29.97R
SEARCY         CLEAR     70  69  97 CALM      29.98R
HOT SPRINGS    PTCLDY    73  68  84 CALM      29.97R
RUSSELLVILLE   PTCLDY    69  68  96 CALM      29.96R
$$

ARZ036-041200-
EAST ARKANSAS

CITY           SKY/WX    TMP DP  RH WIND       PRES   REMARKS
WEST MEMPHIS   CLEAR     73  73 100 CALM      29.96R
$$

ARZ050-053-066-070-073-041200-
SOUTHWEST ARKANSAS

CITY           SKY/WX    TMP DP  RH WIND       PRES   REMARKS
ARKADELPHIA    FAIR      70  70 100 CALM      29.97R
CAMDEN         PTCLDY    70  66  88 CALM      29.96R FOG
TEXARKANA      PTCLDY    76  67  73 SE5       29.94R
EL DORADO      CLEAR     72  67  84 CALM      29.96R
DE QUEEN       PTCLDY    71  69  93 CALM      29.93R
$$

ARZ056-057-069-041200-
SOUTHEAST ARKANSAS

CITY           SKY/WX    TMP DP  RH WIND       PRES   REMARKS
PINE BLUFF     CLEAR     71  70  96 S3        29.97R
STUTTGART      CLEAR     77  72  83 CALM      29.97R
MONTICELLO     CLEAR     74  70  87 CALM      29.96S

$$




USA.gov is the U.S. government's official web portal to all federal, state and local government web resources and services.